This is the latest recevied weather packets stored in our database for station/object SP9KB-13. If no packets are shown the sender has not sent any weather packets the latest 10 day(s).
| Time | Temp. | Humidity | Pressure | Rain* | Wind** | Luminosity | Snow |
|---|---|---|---|---|---|---|---|
| 1777130277 | 19.44° C | 38% | 990.8 hPa | 0 mm | - | - | - |
| 1777129976 | 19.44° C | 38% | 990.8 hPa | 0 mm | - | - | - |
| 1777129678 | 20° C | 36% | 990.6 hPa | 0 mm | - | - | - |
| 1777129375 | 20° C | 37% | 990.7 hPa | 0 mm | - | - | - |
| 1777129074 | 20° C | 36% | 990.8 hPa | 0 mm | - | - | - |
| 1777128774 | 20° C | 35% | 990.7 hPa | 0 mm | - | - | - |
| 1777128473 | 19.44° C | 36% | 990.6 hPa | 0 mm | - | - | - |
| 1777128172 | 19.44° C | 37% | 990.7 hPa | 0 mm | - | - | - |
| 1777127872 | 19.44° C | 39% | 990.7 hPa | 0 mm | - | - | - |
| 1777127571 | 19.44° C | 37% | 990.8 hPa | 0 mm | - | - | - |
| 1777127271 | 19.44° C | 37% | 991 hPa | 0 mm | - | - | - |
| 1777126970 | 20° C | 37% | 991 hPa | 0 mm | - | - | - |
| 1777126670 | 20° C | 36% | 990.9 hPa | 0 mm | - | - | - |
| 1777126369 | 18.89° C | 37% | 990.9 hPa | 0 mm | - | - | - |
| 1777126068 | 18.89° C | 37% | 990.8 hPa | 0 mm | - | - | - |
| 1777125768 | 19.44° C | 37% | 991 hPa | 0 mm | - | - | - |
| 1777125467 | 19.44° C | 37% | 990.9 hPa | 0 mm | - | - | - |
| 1777125167 | 18.89° C | 36% | 991.1 hPa | 0 mm | - | - | - |
| 1777124866 | 19.44° C | 36% | 991.2 hPa | 0 mm | - | - | - |
| 1777124565 | 18.89° C | 37% | 991 hPa | 0 mm | - | - | - |
| 1777124265 | 18.89° C | 35% | 991.1 hPa | 0 mm | - | - | - |
| 1777123964 | 19.44° C | 34% | 991.4 hPa | 0 mm | - | - | - |
| 1777123664 | 18.33° C | 35% | 991.2 hPa | 0 mm | - | - | - |
| 1777123363 | 19.44° C | 34% | 991.4 hPa | 0 mm | - | - | - |
| 1777123063 | 18.89° C | 33% | 991.6 hPa | 0 mm | - | - | - |
* Rain latest hour (hover to see other rain measurements)
** Current wind speed in m/s (hover to see current wind gust speed)